Location: Eckley
(40.9930°N, 75.8630°W)
Time: 12:34:27
(UTC-05:00)

Daily predictions for brighter satellites

Satellite Brightness Start Highest point End
(mag) Time Altitude Azimuth Time Altitude Azimuth Time Altitude Azimuth
CORIOLIS 4.1 17:27:03 10° SSE 17:32:21 71° ENE 17:37:42 10° N
ALOS 3.0 17:34:05 10° SE 17:38:09 31° ENE 17:42:16 10° N
Cosmos 1328 3.9 17:38:59 10° S 17:42:54 55° E 17:46:51 10° NNE
ERS-2 3.7 17:41:42 10° ESE 17:44:01 16° ENE 17:46:19 10° NNE
Cosmos 1943 Rocket 3.2 17:38:53 10° NNW 17:44:18 52° WSW 17:49:37 10° S
Cosmos 2369 Rocket 4.2 17:39:23 10° NW 17:44:27 34° WSW 17:49:30 10° SSW
CSL-04 Rocket 4.1 17:39:31 10° S 17:45:02 71° WSW 17:50:33 10° NNW
Cosmos 1777 Rocket 4.1 17:40:53 10° N 17:46:03 55° ENE 17:51:11 10° SE
Cosmos 1400 Rocket 3.8 17:43:06 10° SSW 17:47:04 51° WNW 17:51:06 10° N
Cosmos 1408 Rocket 3.7 17:43:21 10° SSE 17:47:29 49° E 17:51:39 10° NNE
USA 267 4.4 17:42:02 10° SSE 17:48:19 48° SW 17:54:38 10° WNW
Cosmos 1076 Rocket 3.9 17:45:18 10° SSW 17:49:39 72° W 17:54:01 10° N
Cosmos 1300 2.9 17:46:14 10° N 17:50:04 76° W 17:53:52 10° S
Cosmos 2181 Rocket 4.5 17:44:08 10° SSW 17:50:33 71° W 17:56:58 10° N
IRS-1A Rocket 4.2 17:46:35 10° SSE 17:52:05 71° ENE 17:57:44 10° N
Cosmos 1340 4.5 17:53:51 10° NE 17:55:29 12° ENE 17:56:08 12° E
SPOT 3 Rocket 4.0 17:52:01 10° SE 17:56:46 39° ENE 18:01:32 10° N
Tiangong 1 1.5 17:55:58 10° W 17:58:22 44° SSW 18:00:44 10° SE
Lacrosse 5 3.6 17:56:23 10° SSE 17:59:20 16° ESE 18:01:41 12° E
Cosmos 1703 3.8 17:55:57 10° SSE 17:59:37 38° E 18:03:20 10° NNE
SL-8 Rocket 4.3 17:54:23 10° N 18:00:36 76° W 18:06:49 10° S
USA 116 4.3 17:56:21 10° N 18:00:50 81° WNW 18:05:49 10° SSW
COSMO-SKYMED 1 2.6 17:56:50 10° NNE 18:01:09 61° E 18:05:26 10° S
Geosat 4.2 17:56:32 10° NNE 18:01:33 74° WNW 18:06:34 10° SW
Meteor 2-8 Rocket 4.5 17:56:13 10° S 18:02:22 86° E 18:08:34 10° N
CZ-2C R/B 3.8 17:58:52 10° NNE 18:03:35 86° WNW 18:08:12 10° SSW
BREEZE-M DEB (TANK) 2.6 17:59:28 10° WSW 18:04:49 56° NNW 18:06:52 15° NE
FENGYUN 3A 3.7 17:59:42 10° SSE 18:04:56 58° ENE 18:10:12 10° N
MOS 1 4.3 18:00:01 10° SSE 18:05:34 62° ENE 18:11:08 10° N
SeaSat 1 4.1 18:03:27 10° S 18:08:03 39° WSW 18:12:40 10° NW
Meteor 2-2 Rocket 4.2 18:03:55 10° N 18:09:40 88° E 18:15:18 10° S
Cosmos 2218 Rocket 4.2 18:05:33 10° N 18:11:41 74° W 18:17:47 10° S
METEOR-M 4.4 18:08:18 10° S 18:13:37 74° WSW 18:19:00 10° NNW
NOSS 3-4 (A) 4.0 18:08:51 10° NW 18:15:58 84° WSW 18:23:35 10° SSE
NOSS 3-4 (C) 4.0 18:08:58 10° NW 18:16:05 85° WSW 18:23:42 10° SSE
Cosmos 1743 Rocket 3.7 18:12:36 10° SSE 18:16:48 50° E 18:21:01 10° NNE
Cosmos 44 4.1 18:14:07 10° SW 18:18:13 42° NW 18:22:28 10° NNE
Cosmos 1328 Rocket 3.4 18:14:17 10° N 18:18:38 68° E 18:22:56 10° SSE
TIMED 4.4 18:18:24 10° NNW 18:22:45 64° ENE 18:27:04 10° SSE
Cosmos 2228 Rocket 3.2 18:18:35 10° N 18:23:06 57° E 18:27:36 10° SSE
Cosmos 371 Rocket 3.3 18:20:39 10° S 18:25:21 57° ESE 18:29:49 11° NNE
Cosmos 2082 Rocket 4.0 18:23:40 10° SE 18:24:46 12° ESE 18:24:46 12° ESE
ISS -1.6 18:29:56 10° SSE 18:31:11 14° SE 18:31:11 14° SE
Cosmos 2098 Rocket 3.9 18:27:55 10° N 18:33:32 89° ENE 18:40:25 10° S
PKM 3.8 18:30:52 10° NW 18:33:34 51° NE 18:35:47 23° ESE
Cosmos 1241 Rocket 4.4 18:27:49 10° NNW 18:34:04 86° ENE 18:40:21 10° SSE
Envisat 4.3 18:36:31 21° NE 18:36:31 21° NE 18:39:12 10° NNE
DMSP B5D1-3 4.4 18:34:32 10° NNE 18:39:40 86° ESE 18:44:45 10° SSW
Cosmos 2058 2.9 18:35:32 10° S 18:39:42 88° W 18:43:57 10° N
BREEZE-M R/B 4.4 18:39:34 10° NW 18:40:46 15° NNW 18:40:46 15° NNW
H-2A R/B 2.6 18:40:13 10° SSE 18:44:00 67° ENE 18:47:52 10° N
Cosmos 1570 Rocket 3.9 18:38:56 10° S 18:44:12 69° ESE 18:48:25 16° NNE
COSMOS 2406 3.4 18:41:12 10° SSW 18:46:55 72° WNW 18:52:38 10° NNE
Cosmos 1455 2.3 18:43:20 10° N 18:47:10 75° W 18:50:58 10° S
Cosmos 1151 Rocket 2.9 18:42:55 10° N 18:47:20 88° ENE 18:51:43 10° S
GEOS 3 Rocket 4.3 18:47:05 31° ENE 18:48:13 34° NE 18:53:02 10° NNW
Cosmos 1833 Rocket 4.0 18:44:34 10° SSE 18:47:19 20° SE 18:47:19 20° SE
Cosmos 1821 Rocket 3.9 18:43:35 10° N 18:49:45 67° E 18:55:57 10° SSE
Cosmos 1346 Rocket 4.3 18:46:35 10° NNW 18:50:13 38° W 18:53:49 10° SSW
Cosmos 1535 Rocket 4.4 18:45:25 10° N 18:51:29 59° E 18:57:28 10° SSE
CZ-4 R/B 4.5 18:48:39 10° SW 18:51:36 18° W 18:54:34 10° NW
Cosmos 2369 4.3 18:46:55 10° N 18:52:07 34° ENE 18:52:29 34° ENE
Cosmos 1656 4.4 18:50:32 10° N 18:54:46 30° NE 18:54:46 30° NE
Cosmos 1626 4.5 18:52:35 10° SW 18:55:39 24° WNW 18:58:44 10° NNW
Cosmos 1697 Rocket 4.1 18:56:14 10° N 18:59:05 21° NNE 18:59:05 21° NNE
SL-27 R/B 3.5 18:58:49 10° S 19:00:56 34° S 19:00:56 34° S
RESURS DK-1 4.1 18:58:33 10° N 19:00:13 21° N 19:00:13 21° N
FengYun 1-2 T 4.2 18:57:42 10° SSE 19:03:21 89° WSW 19:08:59 10° NNW
Nadezhda 3 Rocket 4.3 18:57:30 10° SSW 19:03:47 68° W 19:10:10 10° N
Cosmos 1937 Rocket 4.1 19:02:15 10° N 19:06:17 39° NE 19:06:17 39° NE
ERBS 3.5 19:05:22 10° NW 19:07:28 34° NNW 19:07:28 34° NNW
Cosmos 2151 4.2 19:06:00 10° SSW 19:10:02 42° WNW 19:14:09 10° N
Meteor 2-10 Rocket 4.1 19:08:19 10° N 19:11:38 38° NNE 19:11:38 38° NNE
Thor Agena Rocket 3.4 19:12:20 38° NNE 19:14:23 72° ESE 19:19:34 10° S
Cosmos 304 Rocket 4.0 19:10:16 10° S 19:14:11 52° SSE 19:14:11 52° SSE
ALOS 4.5 19:11:41 10° SSW 19:15:34 26° W 19:19:29 10° NW
ERS-2 3.9 19:14:02 10° SSW 19:17:23 33° W 19:20:46 10° NNW
Cosmos 909 Rocket 4.5 19:14:28 10° NW 19:21:03 62° WSW 19:27:10 10° SSE
Cosmos 1934 Rocket 3.9 19:17:34 10° N 19:23:59 90° W 19:30:21 10° S
Cosmos 1340 3.8 19:27:48 10° NNW 19:36:56 - S 19:31:20 41° W
CZ-4C R/B 2.0 19:26:28 10° SSW 19:31:21 77° SSE 19:31:21 77° SSE
Cosmos 1605 Rocket 3.7 19:26:18 10° N 19:32:27 72° E 19:32:52 69° ESE
Lacrosse 5 2.1 19:36:36 10° SW 19:40:56 64° WSW 19:40:56 64° WSW
Cosmos 1898 Rocket 4.4 19:53:45 10° NNW 19:58:50 47° WSW 19:59:21 45° WSW
Cosmos 1980 Rocket 4.3 19:55:01 10° N 19:55:59 15° N 19:55:59 15° N
Cosmos 2082 Rocket 3.6 20:04:01 10° SSW 20:06:43 29° SSW 20:06:43 29° SSW
